Tracking 27112 objects as of 28-Mar-2023
HD Live streaming from Space Station
objects crossing your sky now

CRRES DEB (CANISTER)

Track CRRES DEB (CANISTER) now!


NORAD ID: 21594
Int'l Code: 1990-065K
Perigee: 482.2 km
Apogee: 33,324.8 km
Inclination: 16.7 °
Period: 589.0 minutes
Semi major axis: 23274 km
RCS: 0.1675 m2 (medium)
Launch date: July 25, 1990
Source: United States (US)
Launch site: AIR FORCE EASTERN TEST RANGE (AFETR)

Note: This is SATELLITE DEBRIS
Your satellite tracking list
Your tracking list is empty




NASA's NSSDC Master Catalog

Two Line Element Set (TLE):
1 21594U 90065K   23081.32111924  .00000136  00000-0  68545-3 0  9999
2 21594  16.6560 188.0999 7055489 313.7249   6.3124  2.44501771278653
Source of the keplerian elements: AFSPC